Theta_e
312 313 311 311 311 312 312 312 317 322 321 319 321 324 320 318 317 318 319 314 312 315 315 314 315 314 316 317 312 310 312 311 311 311 311 313 314 314 314 314 315 316 315 314 315 316 315 314 314 316 317 319 322 323 323 324 323 322 321 320 319 319 319 319 319 318 317 316 317 316 316 315 316 316 316 316 317 317 317 318 318 320 321 322 323 323
312 313 312 311 312 312 312 314 316 316 315 316 319 321 319 318 317 315 316 315 311 314 316 313 314 314 316 316 311 309 311 310 311 311 311 312 313 314 315 314 315 315 315 316 316 317 316 316 315 316 317 318 320 321 321 321 320 319 319 318 317 318 318 317 317 317 316 315 315 315 315 315 316 316 317 317 317 318 319 320 321 322 323 324 325 325
313 313 312 310 309 310 312 314 315 313 313 315 316 319 321 319 317 313 313 315 313 314 317 315 314 315 315 315 311 308 309 311 312 312 312 313 313 313 314 315 315 315 315 315 315 315 315 316 316 316 317 317 317 317 318 319 319 319 318 317 316 317 317 316 316 316 316 315 315 315 316 317 318 317 317 318 318 319 320 320 320 321 323 324 325 325
314 313 312 309 308 310 312 312 313 312 312 315 316 318 321 318 317 316 314 314 314 313 315 317 317 316 315 315 314 310 310 312 313 313 313 313 313 313 314 315 315 314 315 315 314 314 315 315 317 316 316 315 316 317 317 318 318 318 316 316 316 316 316 315 315 315 315 317 317 317 318 319 319 319 319 319 319 319 319 320 320 321 323 323 324 325
314 313 311 310 309 310 311 311 312 312 312 315 317 318 319 318 318 318 316 314 314 312 314 316 318 320 318 316 316 314 311 311 311 313 313 312 313 313 313 314 314 315 314 315 315 314 315 315 316 316 315 315 316 316 316 316 316 316 314 315 315 315 315 315 315 315 316 318 318 319 320 320 320 319 319 319 319 319 319 319 319 322 323 323 325 326
313 312 310 311 311 310 310 311 312 312 313 314 317 319 318 318 318 318 317 315 314 314 315 313 315 326 327 318 314 313 312 312 311 310 312 313 313 312 313 313 314 314 314 315 315 315 315 315 315 316 316 316 316 315 314 315 315 316 316 315 315 315 315 315 315 316 317 318 318 319 319 318 318 318 317 318 319 320 321 322 322 323 325 324 325 326
313 311 310 311 312 312 312 312 312 313 312 313 318 319 316 316 319 319 317 317 318 316 315 313 314 324 325 318 315 313 312 314 313 310 310 312 313 312 313 314 314 314 315 314 315 315 315 315 315 316 316 316 316 315 315 316 316 316 317 317 317 317 316 316 316 316 317 318 319 319 319 319 319 318 318 319 321 322 323 325 325 324 324 324 323 324
312 311 312 312 312 313 312 312 313 313 313 317 319 317 316 315 318 318 316 320 323 316 315 316 317 317 317 318 317 312 312 314 313 313 311 310 312 313 313 314 314 314 315 315 315 315 315 315 315 315 316 316 316 317 317 317 316 316 316 317 318 318 318 317 317 317 318 318 319 320 320 321 321 321 322 322 323 324 325 325 325 324 324 323 321 321
312 313 313 313 313 312 310 313 315 312 313 320 319 315 315 315 317 317 316 323 322 315 316 318 315 313 319 324 318 312 313 314 314 315 312 310 311 313 313 314 314 315 315 315 315 315 315 315 316 316 316 317 318 318 318 317 316 316 315 316 317 317 318 318 319 320 320 321 321 322 322 322 323 323 324 325 325 326 325 325 325 324 322 321 320 319
313 312 312 313 313 312 313 317 318 314 314 317 316 317 317 317 318 317 318 324 318 313 319 320 313 312 321 329 320 311 314 317 316 314 311 310 312 313 314 314 314 315 316 316 316 316 316 316 316 317 317 317 317 317 317 317 316 316 315 315 316 317 319 320 321 322 322 323 324 325 325 324 324 325 325 325 326 326 326 324 322 320 320 320 319 317
313 310 311 313 312 312 315 317 315 316 314 313 317 319 318 320 324 326 329 327 315 316 326 324 316 311 316 326 322 314 316 318 316 315 312 309 311 313 314 314 314 315 315 316 316 316 316 316 315 316 315 315 315 315 315 314 314 315 315 315 317 317 320 322 324 324 324 325 326 326 326 326 326 326 325 325 325 325 324 321 318 318 318 318 317 315
313 312 313 313 311 310 315 316 313 313 312 315 323 321 316 323 328 328 329 322 315 321 326 320 315 312 314 322 322 316 317 317 314 317 317 311 310 313 313 314 314 314 315 314 315 315 315 315 315 315 314 314 314 314 313 313 313 313 313 314 315 316 318 322 324 325 326 326 326 326 326 326 326 326 326 326 325 324 321 318 317 317 317 316 314 313
314 318 316 313 311 310 316 319 314 313 314 317 322 318 316 322 320 320 322 319 319 320 316 313 313 313 316 319 318 318 317 315 311 311 313 310 310 313 313 314 315 315 315 314 314 314 314 314 314 313 314 313 313 313 313 313 312 312 311 311 311 313 315 319 322 325 326 326 326 326 326 326 326 326 326 325 324 320 318 317 317 316 314 313 312 312
316 320 317 315 314 310 314 317 315 317 316 314 316 315 320 322 316 315 318 316 319 318 313 310 312 316 318 316 316 318 315 311 308 309 311 310 311 313 313 314 315 314 315 314 314 314 313 313 313 313 313 313 312 312 312 312 312 311 311 310 310 312 314 317 321 323 325 325 326 326 325 325 325 325 324 323 319 317 316 316 314 313 313 312 312 312
316 317 315 315 314 311 313 314 316 321 317 315 317 316 321 325 321 318 319 320 321 319 314 310 313 320 320 315 314 311 308 308 309 311 312 311 311 313 314 315 315 315 314 314 314 314 314 313 313 313 313 312 312 312 312 311 311 311 310 310 310 312 314 317 319 321 323 324 324 324 324 323 322 321 320 318 316 315 314 313 312 312 312 312 313 313
315 315 314 315 311 310 313 312 313 318 317 317 317 317 319 322 326 322 318 323 324 319 315 312 317 324 318 312 311 307 308 311 311 312 312 312 312 313 315 315 315 315 314 314 314 314 314 313 313 313 312 313 312 312 311 311 311 310 310 309 310 311 313 314 316 317 319 320 320 319 318 317 316 316 316 315 314 313 312 312 312 312 312 313 312 312
315 315 315 315 311 310 312 311 311 313 316 316 314 318 319 316 323 322 313 316 319 316 317 314 316 321 315 313 314 310 312 314 312 312 311 312 313 313 315 315 314 315 314 314 314 314 314 313 313 313 313 313 312 312 312 311 310 310 309 309 309 310 311 311 312 313 314 315 314 314 314 314 314 314 314 313 312 312 312 312 312 312 312 312 311 310
317 316 316 315 313 312 310 310 310 309 313 317 315 316 316 312 319 322 314 317 317 316 321 315 313 319 315 317 319 312 315 318 315 312 310 311 313 313 314 314 314 315 314 314 315 314 314 314 313 313 313 312 312 311 311 310 310 310 309 309 309 309 310 310 311 311 312 312 312 313 314 314 313 313 312 312 312 312 312 312 313 312 312 310 309 307
317 318 316 313 314 315 313 313 313 310 310 315 315 313 316 316 318 317 314 318 315 314 321 316 312 318 316 318 322 315 316 320 314 313 313 312 312 312 313 314 314 314 314 314 315 314 314 314 313 313 312 312 311 311 311 310 310 310 309 309 309 310 311 311 311 312 312 313 313 314 313 313 312 312 312 312 312 312 312 312 312 311 309 308 307 305
316 319 318 313 312 314 316 316 316 315 312 312 312 310 316 321 320 317 316 318 316 315 320 316 312 319 319 317 321 318 318 317 312 315 316 312 311 312 313 314 313 314 314 314 314 314 314 314 313 313 313 312 312 311 311 311 311 311 311 311 311 312 313 313 313 313 313 313 313 313 312 312 312 312 312 312 312 312 312 311 310 308 307 306 305 304
314 317 318 315 312 313 316 316 315 317 314 314 314 313 314 315 316 318 316 316 319 320 321 316 314 326 326 315 317 318 317 314 311 314 314 309 310 314 313 314 314 314 314 314 314 314 314 314 313 313 313 312 313 313 312 313 312 313 313 313 313 313 314 313 313 313 313 313 312 312 312 312 312 312 312 312 312 312 310 309 308 306 305 305 304 303
314 315 317 316 315 315 317 315 312 314 314 314 315 314 316 315 316 317 314 314 317 317 321 319 317 328 326 313 314 317 313 309 307 308 310 308 310 313 314 314 313 313 314 314 314 314 314 314 313 313 313 313 314 313 313 313 313 313 314 313 313 313 313 313 312 312 312 312 312 312 312 312 312 312 312 312 311 310 308 307 306 305 304 304 303 302
316 319 320 317 316 317 318 313 308 309 313 314 312 314 317 317 318 318 317 317 315 311 316 317 316 326 326 313 311 313 308 305 305 306 307 307 310 312 313 314 313 313 313 313 313 314 313 313 313 313 314 313 314 313 313 313 313 313 313 313 313 313 312 312 312 312 312 312 312 312 312 312 312 312 311 310 309 307 306 305 305 304 303 302 302 302
315 318 319 316 315 317 318 315 309 308 312 314 314 315 315 316 319 324 325 321 316 313 314 313 313 326 332 313 304 303 303 304 305 306 306 307 309 311 312 313 313 313 313 313 313 313 312 313 313 313 313 313 313 313 313 313 313 313 313 312 312 312 312 312 312 312 312 312 312 312 312 312 312 311 310 308 307 306 305 304 303 303 302 301 301 301
315 317 317 316 316 316 318 317 313 311 312 316 317 315 316 318 318 319 318 314 314 318 318 315 317 325 329 317 306 304 305 306 306 306 307 308 309 310 311 313 313 312 313 313 312 313 312 313 313 313 313 313 313 313 313 313 313 312 312 312 312 312 312 312 312 312 312 312 312 312 312 312 311 309 308 307 305 304 303 303 302 302 301 301 300 300
320 320 316 316 316 315 315 315 314 315 314 315 316 314 316 319 316 315 317 314 315 318 315 315 320 322 321 318 314 312 311 311 310 307 307 308 309 311 311 312 313 313 313 313 312 312 313 312 313 313 313 313 313 313 312 312 313 312 312 312 312 312 312 312 312 312 312 312 312 312 311 310 309 308 306 305 304 303 303 302 302 301 301 300 299 299
323 320 315 315 315 314 315 316 317 318 315 315 317 316 317 317 315 318 320 318 319 319 315 317 319 317 316 317 317 318 317 318 315 307 306 309 309 310 312 312 313 313 312 313 313 312 313 312 312 313 312 313 313 312 312 312 312 312 312 312 312 312 312 312 312 312 312 312 311 311 310 309 307 306 305 304 303 302 302 302 301 301 300 299 299 299
322 318 314 315 314 314 315 316 317 318 315 314 317 317 318 317 316 318 317 316 319 318 315 318 318 314 314 316 319 322 321 320 314 306 306 309 309 310 311 312 313 313 313 313 312 313 313 312 312 312 313 313 312 312 312 312 312 312 312 312 312 312 312 312 312 312 311 311 310 310 308 307 306 305 303 303 302 302 301 301 301 300 299 299 299 299
319 317 315 314 314 315 316 314 314 316 314 314 315 315 316 316 316 316 315 315 317 315 313 315 316 315 315 316 320 321 316 313 310 307 308 309 309 310 311 312 313 313 312 313 312 313 313 313 313 313 313 312 312 312 312 312 312 312 312 312 312 312 312 311 312 311 311 310 309 308 307 306 305 303 302 302 301 301 301 300 300 299 299 299 299 299
315 318 317 315 314 316 318 316 314 315 314 314 315 314 314 315 315 315 315 314 315 315 314 314 315 315 315 316 318 314 309 307 307 308 310 309 309 311 311 312 313 313 313 313 312 313 313 313 313 313 313 313 312 312 312 312 312 312 312 312 312 312 311 311 311 311 310 309 308 307 306 305 304 303 302 301 301 300 300 299 299 299 298 299 299 300
312 316 316 315 313 314 317 317 314 314 315 315 316 315 314 315 314 314 314 314 314 314 314 314 315 315 313 311 311 310 308 307 306 308 310 310 310 311 311 312 313 312 313 313 312 313 312 312 313 312 313 313 312 312 312 312 312 312 312 312 311 312 311 311 311 310 309 308 307 306 305 304 303 302 301 301 300 300 299 299 298 298 299 299 300 300
315 315 314 316 315 312 314 316 314 313 313 314 316 316 315 314 314 313 314 314 314 314 314 315 314 314 312 309 309 309 307 306 307 309 310 310 310 311 311 312 312 313 313 313 313 313 312 312 312 312 313 312 312 312 312 312 312 312 312 312 311 311 311 310 309 309 308 307 306 305 304 303 302 301 300 300 299 299 299 298 298 298 299 299 300 300
321 319 316 317 316 313 312 314 315 315 315 315 315 315 314 313 313 313 314 314 314 313 314 314 312 313 315 314 313 313 309 307 309 311 311 310 310 311 312 312 312 312 313 313 313 313 313 313 313 312 313 313 312 312 312 312 312 312 312 312 311 311 310 309 309 308 307 306 305 304 303 302 301 300 300 299 299 298 298 298 298 299 299 299 299 299
320 319 318 319 319 315 312 313 315 317 316 316 317 316 314 313 313 314 314 314 313 312 313 313 313 315 317 316 315 315 312 311 311 312 312 312 311 311 312 312 312 312 312 312 313 312 313 313 312 312 312 312 312 312 312 311 311 312 312 311 311 310 310 309 308 307 306 305 304 303 302 301 300 299 299 299 298 298 298 298 298 298 299 299 299 298
318 317 319 322 321 316 313 314 316 316 314 315 320 318 313 311 313 314 314 313 312 313 313 313 313 314 313 311 312 311 310 312 312 313 313 312 311 312 312 312 312 312 312 312 312 312 313 313 312 312 312 312 312 312 311 311 311 311 311 311 310 310 309 308 307 306 305 304 303 302 301 300 300 299 299 299 298 298 298 298 298 298 298 299 298 298
316 318 319 320 318 316 316 317 316 315 314 316 319 316 312 312 313 313 313 314 313 313 313 313 313 311 308 308 310 310 309 310 311 311 312 312 312 312 313 313 313 313 312 312 312 312 312 312 312 312 312 312 312 311 311 311 311 311 311 310 310 309 308 307 307 306 304 303 302 301 300 299 299 299 298 298 298 297 298 298 298 298 298 298 298 297
314 319 319 317 316 317 318 317 317 316 316 317 318 315 313 314 315 314 315 315 314 313 312 312 312 311 309 309 310 309 309 309 311 312 312 312 313 312 313 313 313 313 313 313 313 312 312 312 312 312 312 312 312 311 311 311 311 311 310 310 309 309 307 306 306 305 304 303 301 300 299 299 298 298 298 297 297 297 297 298 298 298 298 298 297 296
314 316 317 316 316 318 318 317 317 318 318 316 317 316 312 311 313 314 314 316 315 312 310 311 313 312 309 309 309 308 309 311 312 313 312 312 313 313 313 313 313 313 313 312 312 312 312 312 312 312 312 312 311 311 311 310 310 310 310 310 309 308 307 306 305 304 303 302 300 299 299 298 298 298 297 297 297 297 297 297 298 298 297 297 296 295
315 315 315 316 315 316 317 317 317 318 317 316 319 317 310 309 311 312 313 315 314 310 309 310 311 311 309 308 308 308 311 314 313 312 311 312 312 312 313 313 313 313 312 312 312 311 311 311 311 311 311 311 311 311 311 310 310 310 309 309 308 307 307 305 305 304 303 301 300 299 298 298 297 297 296 296 297 297 297 297 297 297 296 296 295 294
313 314 314 315 315 315 315 316 316 316 316 318 321 315 308 309 311 313 315 316 312 309 310 310 309 309 310 309 308 309 313 315 313 311 311 311 312 312 312 313 313 313 312 311 311 310 310 311 311 311 311 311 311 311 310 310 310 309 309 309 308 307 306 305 304 303 301 300 299 298 298 297 297 296 296 296 296 297 297 297 297 296 296 295 294 293
313 313 313 314 314 314 314 315 315 315 317 321 318 310 307 310 312 314 317 317 311 309 309 310 310 310 310 308 308 310 312 312 311 311 311 311 312 312 312 312 312 312 311 311 310 310 310 310 310 310 310 310 311 310 310 310 309 309 309 308 308 307 306 305 304 302 300 299 298 297 297 296 296 296 296 296 296 296 296 296 296 295 295 294 293 293
313 314 314 313 312 313 314 314 315 315 315 316 312 306 307 312 316 316 316 313 310 309 309 310 311 311 310 309 309 310 311 310 310 310 311 311 312 312 311 312 312 311 311 311 310 310 310 310 310 310 310 310 310 310 310 310 309 309 309 308 307 307 306 304 303 301 299 298 297 297 296 296 295 295 295 296 296 296 296 295 295 294 294 293 293 292
312 313 313 311 312 314 313 312 314 315 311 309 309 308 309 314 319 317 312 309 309 309 309 310 310 310 310 310 310 310 310 309 309 310 311 311 311 311 311 311 311 311 311 311 310 310 310 310 310 310 310 310 310 310 309 309 309 309 308 308 307 306 305 303 302 300 298 297 296 296 296 295 295 295 295 296 295 295 295 294 294 294 293 293 292 292
313 313 314 312 312 314 313 312 316 315 309 307 310 311 311 312 314 312 310 310 309 309 309 310 310 311 311 310 310 310 309 309 309 310 310 310 310 310 310 310 310 310 310 310 310 310 310 310 310 309 309 309 309 309 309 309 309 309 308 308 307 306 304 302 301 298 297 296 295 295 295 295 295 295 295 295 294 294 293 293 294 293 293 292 291 291
312 312 313 313 313 314 313 313 314 311 306 306 309 310 309 310 310 310 310 311 310 309 309 310 310 311 311 311 310 310 309 309 309 309 309 310 310 310 310 310 309 310 310 310 310 310 309 310 310 309 309 309 309 309 309 308 308 308 308 308 306 305 303 302 299 297 296 295 295 295 295 295 295 295 295 294 293 293 293 293 293 293 292 291 291 290
310 307 308 312 314 312 309 309 308 306 305 307 308 308 308 309 310 310 309 310 310 309 309 309 310 310 310 310 310 310 310 310 309 309 310 310 310 310 309 310 310 310 310 310 310 310 309 309 309 309 309 309 309 308 308 308 308 307 307 307 306 304 303 301 298 296 295 295 295 294 294 294 294 294 294 293 292 292 293 293 293 292 291 291 290 290
307 305 307 312 314 313 313 312 308 306 306 306 306 307 307 308 309 309 309 309 309 309 308 308 309 309 309 309 309 309 310 310 309 310 310 309 310 310 309 309 309 309 309 309 309 309 309 308 308 308 308 308 308 308 308 307 307 307 306 306 305 303 301 299 297 296 295 295 294 294 294 294 294 293 293 292 292 292 292 292 291 291 290 290 290 289
307 305 310 315 313 312 312 308 302 303 304 304 305 307 307 307 308 308 308 309 308 307 308 308 308 308 308 308 308 308 309 309 309 309 309 309 309 309 309 309 309 308 308 308 308 308 308 308 308 307 307 308 307 307 307 307 307 306 305 304 303 302 300 298 296 295 295 294 294 294 294 293 293 293 292 292 292 292 291 291 290 290 290 289 289 289
306 307 311 314 312 310 308 302 300 304 306 304 304 306 306 307 308 307 307 307 307 307 307 307 307 308 307 307 308 308 308 308 308 308 308 308 308 308 308 308 307 307 307 307 307 307 307 307 307 307 306 307 306 306 307 306 306 306 305 303 302 300 299 297 295 294 294 294 294 294 293 293 293 292 292 292 291 291 290 290 290 289 289 289 289 289
307 311 312 312 312 313 311 306 305 310 311 305 303 305 306 306 307 306 306 307 306 307 307 307 307 307 307 308 308 307 307 308 307 307 307 307 307 307 307 307 307 307 307 307 307 307 307 306 306 306 305 305 305 305 305 305 305 305 304 303 301 299 297 296 295 294 294 294 293 293 293 293 292 292 291 291 291 290 290 290 289 289 289 289 289 288
307 311 311 310 312 312 311 308 305 306 306 302 302 305 305 305 306 306 305 306 306 305 306 306 307 307 307 307 307 307 307 307 307 307 307 307 307 307 307 307 307 306 306 306 306 306 306 306 306 306 305 305 305 304 304 304 304 304 303 302 300 297 296 295 294 294 294 293 293 293 293 292 292 291 291 291 290 290 289 289 289 289 288 288 288 288
Wind_Speed
18 8 9 10 9 8 7 7 8 7 6 7 6 5 6 6 5 5 3 4 2 5 6 7 7 7 8 8 9 14 14 15 18 18 20 22 24 26 27 28 29 30 28 25 24 24 23 22 21 22 23 24 26 27 28 28 28 27 25 24 22 20 19 19 19 19 19 19 20 19 19 17 16 16 16 16 15 15 15 15 16 15 15 15 14 14
13 9 11 10 8 7 7 8 8 6 4 5 5 6 6 6 5 3 2 4 1 3 4 2 4 7 9 9 8 9 9 13 21 22 23 25 25 26 27 28 28 27 26 25 26 26 25 25 24 23 24 25 26 27 28 28 27 27 26 25 23 21 21 21 21 20 19 18 17 16 14 13 13 14 15 15 14 15 15 16 16 16 16 16 15 14
10 11 12 10 8 8 7 8 9 7 5 4 3 6 5 5 3 1 2 5 3 2 4 1 5 9 9 7 8 10 11 16 25 26 26 27 27 28 29 29 27 26 25 24 25 26 26 26 26 25 25 26 26 26 26 26 26 27 26 25 23 23 22 21 21 21 20 18 17 15 13 11 12 12 12 13 13 14 15 15 15 16 16 15 14 14
9 10 13 11 8 8 7 8 8 6 4 3 3 5 4 4 4 1 3 3 3 1 1 3 4 6 6 4 7 15 18 18 23 27 27 28 28 29 29 29 28 27 26 24 23 24 26 26 27 27 27 26 26 26 26 27 27 27 26 25 24 23 23 22 22 21 20 19 17 16 14 13 13 13 12 12 13 15 15 15 14 13 13 13 12 11
7 8 12 12 7 9 9 8 9 6 4 4 4 5 4 5 5 2 3 2 2 2 2 5 2 5 5 4 7 12 13 15 19 22 25 29 29 28 28 29 30 29 26 24 23 23 25 26 27 27 26 26 27 27 27 26 27 26 26 25 25 24 24 23 23 22 22 20 19 18 17 17 16 16 15 15 14 14 14 13 11 10 10 10 10 9
10 14 13 12 8 9 9 9 9 8 5 5 5 7 8 9 7 4 7 6 3 2 3 3 1 5 4 5 9 6 4 9 13 15 23 29 29 28 27 29 30 29 28 26 24 23 24 26 26 26 26 27 27 26 26 26 26 26 26 26 26 26 25 24 24 23 23 22 21 21 21 20 19 18 17 15 13 11 11 10 10 10 10 11 11 11
8 14 9 10 12 10 8 9 8 8 7 4 6 8 9 9 8 8 9 6 3 4 4 2 4 5 5 4 8 5 4 9 8 9 19 26 28 29 29 28 28 29 29 28 27 25 25 25 26 27 26 26 25 24 25 26 26 27 27 27 27 27 26 25 25 24 24 23 23 22 22 20 19 18 16 14 12 11 11 11 11 12 13 14 13 12
8 11 6 8 11 9 8 8 7 9 8 4 5 6 9 9 10 11 10 6 3 3 2 4 4 3 4 6 6 2 5 8 8 9 15 22 27 28 28 28 28 29 30 29 29 28 27 26 26 27 26 25 25 25 26 26 26 27 27 27 28 27 27 26 25 25 25 24 24 23 22 20 19 17 16 14 13 12 13 13 14 15 16 16 14 13
6 10 7 8 8 7 9 7 7 11 6 5 4 5 7 9 10 10 9 4 2 3 2 3 3 3 5 6 5 1 2 6 9 11 13 20 25 26 27 27 27 28 28 29 30 30 29 27 27 26 26 26 26 27 27 27 27 27 28 28 28 28 28 27 26 26 26 25 24 23 21 20 19 17 17 16 15 14 15 16 17 18 17 15 13 12
4 7 5 6 6 6 7 5 8 11 5 4 6 7 5 5 5 5 6 5 3 2 6 6 4 3 5 5 3 1 2 6 9 10 12 18 23 25 28 27 25 25 26 27 28 28 28 28 27 28 28 28 28 29 29 30 30 30 30 30 30 29 29 28 27 27 27 26 24 22 21 20 19 19 19 19 18 18 19 20 19 17 15 12 11 10
2 2 2 3 4 4 5 3 4 8 8 10 9 7 7 6 5 3 3 4 3 3 7 6 4 3 3 5 4 4 4 7 7 6 8 14 21 26 27 27 26 26 26 27 27 28 28 28 29 29 30 30 30 31 32 32 33 32 32 32 32 31 30 29 29 28 27 26 24 22 21 20 20 21 21 21 21 21 21 20 16 13 11 10 9 8
3 1 2 3 4 3 4 3 1 4 10 11 6 5 5 3 4 3 4 2 3 5 6 4 2 3 4 5 4 5 6 6 7 7 7 11 20 26 27 26 26 25 25 26 27 28 29 30 31 32 32 32 32 33 33 33 33 33 34 34 33 33 33 31 30 28 27 26 24 23 21 21 21 22 22 23 23 23 21 17 12 10 9 8 7 5
3 2 2 3 4 4 4 3 3 2 6 6 5 7 6 1 1 1 2 1 4 5 3 2 1 2 5 7 7 8 9 8 8 9 9 12 20 26 27 26 25 24 23 23 24 25 27 29 30 31 32 33 33 33 33 33 33 33 33 34 34 33 33 32 30 29 27 26 25 24 23 23 23 23 23 24 23 21 18 13 11 10 8 7 6 5
4 4 3 2 3 5 5 4 4 4 5 6 8 8 6 4 4 5 4 1 3 4 2 1 1 2 4 5 8 10 10 10 11 13 12 13 19 24 27 26 23 23 22 21 21 22 24 25 26 28 29 30 30 29 29 29 31 32 32 32 32 32 31 31 30 28 28 27 26 25 25 25 25 25 24 23 20 16 14 12 11 10 9 8 8 7
7 3 4 4 1 1 2 3 4 6 5 4 4 7 6 5 5 5 4 3 3 2 2 2 1 4 4 3 6 8 9 9 11 13 12 11 15 20 24 24 22 22 21 20 20 20 21 22 23 25 25 25 25 24 24 26 27 29 30 31 30 30 29 29 29 28 28 28 27 27 26 26 25 24 22 20 17 14 14 13 11 11 10 9 8 7
8 4 2 2 1 0 1 3 1 7 6 3 2 6 5 5 5 3 3 5 5 1 1 2 3 4 4 5 6 5 7 6 5 7 7 8 12 17 22 23 22 22 20 20 20 19 20 20 21 21 21 20 21 21 22 24 25 26 27 28 28 28 28 28 27 27 27 27 27 26 25 24 23 21 19 18 17 16 15 13 12 12 10 9 7 6
8 3 3 3 1 1 0 3 2 2 5 2 3 4 5 4 7 6 2 1 4 2 2 2 3 4 3 5 6 5 5 6 3 3 5 9 13 18 22 22 22 21 20 19 18 18 18 18 18 18 18 18 19 20 21 21 22 23 24 25 25 25 26 26 26 25 25 25 24 23 22 21 20 19 19 19 18 16 15 14 13 11 10 8 7 5
5 2 3 1 1 1 3 3 3 2 3 4 3 5 3 3 5 5 2 2 3 2 4 1 3 4 1 3 6 6 6 8 5 3 4 8 13 18 21 21 21 20 19 18 17 17 17 16 16 16 16 17 17 17 18 19 20 20 21 21 22 23 23 23 24 23 23 22 21 20 20 20 21 21 20 18 17 16 15 14 12 10 9 8 7 6
5 2 2 1 2 3 5 2 1 3 3 3 4 4 4 3 2 2 3 2 2 3 4 3 3 3 3 5 4 4 9 10 7 5 5 8 15 20 22 22 21 20 19 19 18 18 17 16 16 16 16 16 16 16 17 19 20 20 21 21 21 22 22 22 23 22 22 22 22 22 22 22 22 20 19 17 17 16 14 12 11 10 9 8 8 6
5 4 2 2 1 2 4 2 3 2 2 3 2 3 2 3 5 3 3 4 4 4 3 2 1 3 5 6 6 9 12 10 8 7 8 13 19 23 24 24 23 23 22 21 20 19 18 17 16 15 16 15 16 17 18 19 20 21 22 22 23 23 22 23 23 23 24 24 24 24 23 22 20 19 18 17 16 15 14 13 12 11 10 9 7 6
4 4 2 2 3 0 1 1 4 5 2 2 2 3 2 1 2 2 1 3 4 4 3 2 1 5 6 5 8 11 10 8 10 9 10 15 22 25 26 25 25 24 23 22 21 20 19 18 17 16 16 16 17 18 19 20 21 22 22 23 23 24 24 25 25 25 25 25 24 23 21 21 20 20 19 17 16 15 14 13 12 11 10 9 7 6
2 3 4 2 0 2 3 3 2 3 2 2 3 5 5 3 4 3 3 1 2 3 4 4 2 7 6 4 7 9 5 4 8 10 11 16 23 26 26 25 25 24 23 23 22 20 19 18 18 18 18 18 18 19 20 21 22 23 23 24 24 25 25 26 25 25 24 23 23 22 21 21 20 20 19 18 17 15 14 14 12 11 10 9 8 7
3 4 4 2 3 4 5 4 2 3 2 1 3 4 4 3 5 6 6 3 2 2 2 4 2 6 6 4 5 7 6 6 8 12 15 18 23 26 26 25 24 23 22 22 21 20 20 19 19 20 20 19 19 19 20 22 23 24 24 25 25 25 25 25 24 24 23 23 23 22 22 21 20 20 19 17 17 16 15 14 13 12 11 9 8 6
4 4 4 1 2 2 4 5 2 0 0 1 4 2 3 2 3 5 5 4 4 4 3 3 2 6 6 3 4 8 9 10 11 13 18 19 20 24 26 25 24 23 22 21 21 21 20 21 21 21 21 21 20 20 22 23 24 25 26 25 25 25 25 25 24 24 23 23 23 23 22 21 20 20 19 18 17 16 16 15 13 13 11 9 8 6
5 2 4 4 1 1 2 3 3 3 3 3 3 1 2 3 6 4 2 3 2 4 5 5 4 7 6 4 4 6 7 9 11 13 16 18 18 22 25 25 25 24 23 23 23 23 23 23 23 23 23 22 22 23 24 26 26 26 26 25 25 25 24 24 23 23 24 23 23 23 22 21 21 20 19 18 18 17 17 15 14 12 11 9 7 5
6 3 5 6 6 8 7 6 6 4 3 1 1 1 3 5 7 4 2 4 3 4 5 6 5 6 7 6 6 6 5 6 7 8 13 17 17 20 23 25 26 25 25 25 24 25 25 25 25 25 24 24 25 26 27 28 27 27 26 25 24 23 23 24 24 24 24 23 23 23 22 22 21 21 20 20 19 18 17 15 14 12 10 8 6 4
4 2 7 9 11 11 8 5 5 7 5 4 5 5 6 7 7 5 3 3 5 3 3 6 6 6 8 7 6 7 5 6 6 6 13 17 18 20 22 25 27 27 26 26 25 26 26 27 27 27 26 26 27 28 28 28 27 26 25 25 24 24 24 24 25 25 24 24 23 23 22 22 22 22 21 20 19 18 17 15 13 11 9 8 6 5
3 3 9 10 11 9 7 9 10 11 12 12 12 11 10 9 8 7 7 8 6 5 5 9 7 8 9 7 6 8 6 5 7 10 15 17 18 20 22 24 26 27 27 27 27 29 29 30 30 29 28 29 30 30 29 28 27 26 25 25 25 26 26 26 26 25 25 24 24 23 23 23 23 22 22 21 20 18 16 14 12 11 9 8 7 5
3 6 8 7 5 2 4 9 10 12 13 14 16 17 14 11 11 11 13 10 7 7 11 11 9 9 9 6 8 10 9 9 11 12 13 14 16 20 22 24 27 27 28 29 30 31 32 32 33 32 31 32 32 32 31 30 29 28 28 27 27 27 27 27 26 26 26 25 25 25 25 24 24 23 22 21 20 18 16 14 12 11 10 8 7 5
3 5 5 6 5 3 2 4 8 10 9 8 12 14 13 13 14 15 15 13 10 10 12 8 6 8 8 8 9 9 8 9 8 7 9 12 16 20 22 25 27 28 30 31 32 33 33 34 34 33 34 35 35 35 34 33 32 31 30 30 29 29 29 28 28 27 27 27 27 26 26 25 25 24 23 21 19 17 15 14 13 11 10 8 6 5
2 3 2 5 6 2 5 1 4 7 6 6 8 9 10 12 14 15 16 12 9 9 11 6 6 9 8 8 12 12 8 4 5 8 13 16 18 21 24 26 28 29 30 32 33 34 34 34 34 35 36 37 38 38 36 35 34 33 32 30 30 30 30 29 29 28 28 28 28 27 27 26 25 24 23 21 19 17 16 14 13 11 10 8 6 4
3 2 2 5 5 2 4 3 3 3 2 3 7 8 11 13 12 12 11 8 8 10 11 9 9 10 5 6 10 12 7 7 10 15 18 18 19 22 25 27 28 29 30 31 33 35 36 36 36 37 39 40 40 40 38 36 35 34 33 32 32 32 31 31 31 30 30 29 29 28 28 27 26 24 22 21 19 17 16 15 13 11 9 7 5 4
5 5 3 4 5 3 4 1 4 6 3 5 9 11 15 14 11 9 8 8 11 11 10 10 10 7 5 6 8 6 6 9 15 20 21 20 21 24 25 26 27 28 28 29 32 33 35 37 38 39 40 41 42 42 39 38 37 36 35 34 34 34 33 33 32 32 31 31 30 30 29 27 26 24 22 20 19 17 16 15 13 11 9 7 5 5
6 6 5 4 4 3 4 1 4 5 5 7 5 8 14 14 13 12 11 13 14 10 8 8 6 3 6 8 9 7 10 15 21 24 23 20 19 21 24 26 26 27 28 29 31 32 32 34 37 40 40 41 42 42 40 38 37 36 35 35 35 35 35 34 34 33 33 32 31 30 29 28 26 24 22 21 19 18 16 14 12 10 9 7 6 5
8 6 4 3 4 2 2 3 5 6 8 4 4 1 9 13 14 15 15 14 13 12 11 11 9 6 9 12 14 14 16 19 22 24 22 20 19 20 23 26 27 28 30 31 32 32 31 32 36 39 41 42 43 43 42 40 38 37 36 36 36 36 36 36 36 35 34 33 32 31 30 28 26 24 23 21 20 18 16 14 12 10 9 7 5 5
8 6 3 3 4 2 2 4 6 5 4 6 6 3 2 4 6 7 10 10 9 9 10 13 15 12 11 16 20 16 13 14 17 20 21 20 21 23 24 26 26 26 28 28 28 29 28 29 31 34 38 42 44 44 43 41 40 38 38 38 38 38 38 38 37 36 35 34 33 32 30 28 26 25 24 22 20 18 16 14 12 10 8 6 5 5
7 7 4 2 2 2 3 3 3 5 8 11 8 4 5 5 6 6 6 9 9 12 12 13 14 13 12 20 23 16 10 8 9 16 23 22 21 23 25 25 24 24 25 26 26 27 26 27 29 31 35 39 43 44 44 42 41 40 40 40 40 40 40 39 38 37 36 35 34 32 30 29 27 25 24 22 20 18 16 14 12 10 8 6 6 6
4 5 6 5 2 3 5 0 3 4 10 10 5 5 10 14 12 10 6 8 8 15 19 17 13 12 12 16 18 12 7 5 4 14 26 25 23 25 26 25 26 26 26 27 27 28 28 28 29 30 32 36 39 42 43 43 42 42 42 42 42 42 41 40 39 38 37 35 34 32 31 29 27 25 23 22 20 18 16 14 11 9 7 7 6 7
4 2 6 6 2 3 5 3 4 8 9 4 5 7 15 22 17 12 3 9 6 13 23 20 12 12 14 18 17 11 7 4 5 16 28 26 23 26 28 27 28 27 28 28 27 27 26 25 27 29 31 33 36 38 41 42 42 43 44 43 43 43 42 41 40 38 37 36 34 33 31 29 28 25 23 21 20 18 15 13 10 9 8 7 7 8
5 3 5 7 5 6 7 5 5 6 6 5 6 7 14 24 20 13 2 9 6 14 23 22 18 19 24 24 17 11 8 9 10 16 22 18 16 21 24 26 28 28 28 28 27 25 22 21 23 26 27 29 31 34 38 42 43 44 44 44 44 43 43 42 40 38 37 36 35 33 32 29 27 25 23 21 19 16 14 12 11 9 8 8 8 9
3 2 3 6 6 7 8 6 4 5 6 7 5 7 19 22 14 7 7 7 9 14 15 18 23 26 25 21 16 13 18 23 18 15 14 10 9 11 14 18 22 23 24 23 23 22 20 19 20 20 22 24 27 30 35 39 42 44 44 44 44 44 43 41 40 39 38 37 35 34 32 29 27 25 23 21 18 16 14 12 11 9 9 8 9 10
4 2 1 3 5 5 5 4 3 6 7 7 7 12 19 14 4 8 7 4 10 13 9 10 17 19 18 19 20 21 25 25 20 14 10 9 9 8 8 10 12 14 16 16 16 17 17 17 17 18 20 23 25 28 32 35 40 43 44 45 44 44 43 41 40 39 38 37 36 34 31 29 27 25 22 20 18 16 14 12 11 10 9 9 10 11
7 6 4 4 5 4 2 4 4 6 6 15 16 9 8 6 3 8 9 6 8 11 9 8 10 11 13 17 19 21 21 19 17 15 11 10 10 9 9 10 10 11 12 12 12 13 13 14 16 17 20 22 25 28 30 33 38 41 44 45 45 44 43 42 41 40 39 37 35 33 31 29 26 24 22 20 18 16 14 13 11 10 10 10 11 13
5 7 6 5 4 5 4 8 7 4 9 21 15 5 13 13 5 8 14 10 8 11 11 10 11 11 13 13 13 17 19 17 16 15 13 13 12 11 10 10 10 11 11 11 12 12 12 13 15 17 19 22 24 27 30 33 36 39 42 45 45 44 44 43 41 40 38 37 35 32 30 28 26 24 22 20 18 16 14 13 11 11 11 12 13 14
8 8 5 4 5 4 5 8 6 2 10 15 4 3 21 23 9 8 15 13 11 13 12 11 11 11 11 11 11 13 14 15 15 14 13 13 12 10 10 9 8 9 9 9 10 11 12 14 15 17 19 21 24 27 29 32 35 38 41 43 44 44 44 43 41 40 38 36 34 32 30 28 26 24 21 19 18 16 14 13 12 13 13 14 14 16
6 6 6 4 3 3 4 5 5 5 7 8 2 6 20 23 13 9 12 12 13 15 13 13 12 11 10 9 8 9 11 11 11 12 12 11 10 10 9 8 8 7 7 8 9 11 12 14 16 17 19 21 23 26 29 31 34 36 39 41 43 44 43 41 40 39 38 36 34 32 30 27 25 23 21 19 17 16 14 14 14 14 15 15 16 17
3 5 5 3 4 5 4 3 4 7 7 8 8 10 15 18 15 12 12 14 16 16 15 16 14 13 12 10 8 8 9 10 10 10 10 10 9 9 8 7 8 8 9 10 11 12 13 14 16 17 19 21 23 25 28 31 34 36 38 40 41 42 41 40 39 39 38 36 34 31 29 27 25 23 21 19 18 16 16 15 15 16 16 16 17 18
3 7 6 3 5 6 3 2 4 9 9 10 12 13 14 15 16 15 15 16 17 16 15 15 14 13 13 11 10 9 8 9 9 8 8 8 8 8 8 8 9 10 11 11 12 13 13 14 15 17 18 20 22 24 27 30 33 35 37 39 39 39 39 39 39 38 37 35 33 30 29 26 24 22 21 20 19 18 17 17 17 17 17 17 18 19
8 9 6 3 3 2 1 1 6 8 5 6 11 15 16 16 17 17 17 15 15 14 14 13 11 10 9 8 8 8 7 8 8 7 7 8 7 7 8 9 9 10 11 11 11 12 13 14 15 16 17 19 21 23 26 29 31 34 36 37 37 38 38 39 39 38 36 34 32 30 28 26 25 23 22 21 20 19 18 18 18 18 18 18 19 20
8 6 3 4 5 3 3 8 11 6 1 6 13 15 16 15 15 15 15 13 12 11 10 10 10 8 7 6 5 5 5 5 6 6 6 6 6 7 8 8 9 10 10 10 11 12 12 13 14 16 17 18 20 22 24 26 29 32 35 36 37 38 39 39 39 37 36 34 32 30 29 27 26 25 23 22 20 20 19 19 18 19 19 19 20 21
7 6 7 7 6 5 7 17 19 9 4 9 15 15 15 14 14 14 14 13 12 11 9 9 8 8 7 6 5 5 5 5 5 5 6 6 7 7 7 8 8 8 8 9 10 11 12 13 15 16 17 18 20 22 23 25 28 31 34 36 37 38 39 39 38 38 36 34 32 31 30 28 27 25 24 22 21 21 20 20 20 20 20 20 21 21
Wind_Direction
170 207 236 220 220 217 212 195 193 198 171 166 151 139 164 173 213 229 253 283 160 156 215 207 212 237 239 249 230 207 209 217 225 231 230 226 222 219 218 220 223 227 232 233 229 227 224 220 216 215 214 213 215 217 220 221 223 225 226 227 226 221 220 218 218 220 222 225 226 230 234 238 242 244 247 251 255 261 264 267 269 270 271 271 275 282
190 226 231 222 216 197 200 198 200 201 160 155 150 152 178 185 209 233 246 302 18 167 237 208 206 251 244 242 247 215 203 221 224 226 230 229 226 225 222 222 225 230 234 233 231 229 227 224 220 218 217 215 215 215 217 218 219 222 223 225 225 222 221 219 219 220 222 227 231 236 241 246 249 249 252 256 259 261 262 264 267 267 268 270 274 277
213 236 228 218 204 188 197 201 206 208 178 172 153 145 173 197 206 308 310 328 18 186 254 185 192 244 251 248 259 234 213 223 226 226 228 226 224 225 223 223 225 228 230 229 228 228 226 224 221 219 219 217 217 217 217 218 218 220 222 223 223 223 223 221 221 223 225 229 232 236 241 245 248 248 251 253 254 255 256 258 260 260 261 261 265 268
205 228 225 214 198 190 204 210 209 212 200 193 151 150 186 193 168 190 269 323 31 124 199 154 186 260 276 283 271 246 233 232 235 234 233 228 223 223 222 223 224 224 226 225 223 222 221 221 220 219 218 217 218 219 219 219 219 220 221 222 222 222 224 224 224 226 229 231 234 236 238 240 242 241 240 240 241 244 247 251 253 255 254 254 259 265
217 243 223 205 202 197 200 217 211 195 221 241 185 171 181 182 186 182 158 123 26 355 99 110 49 306 273 251 259 250 237 236 239 236 236 232 226 225 226 225 226 225 225 224 221 220 218 218 218 218 218 217 218 219 219 220 221 222 222 222 223 224 226 227 227 228 230 231 234 233 231 231 233 234 234 235 239 242 246 249 251 251 249 248 253 263
232 252 222 193 207 204 197 215 208 181 204 260 223 197 187 184 185 142 123 109 82 276 265 111 96 292 287 247 245 248 226 233 236 231 233 233 226 225 228 227 226 225 225 226 225 223 220 219 218 218 218 218 219 220 221 223 224 225 225 224 224 226 227 228 229 230 230 232 233 233 232 231 233 237 240 242 244 249 252 253 249 244 243 246 247 254
224 244 223 193 202 198 203 219 206 174 172 236 238 205 188 176 159 142 142 132 136 218 273 94 165 255 311 277 252 253 237 243 247 238 237 234 228 225 227 227 225 222 223 225 225 225 223 221 220 219 219 219 221 222 223 224 225 225 227 226 226 227 229 230 229 229 230 232 233 234 235 236 238 242 247 250 249 247 247 248 249 246 246 251 252 251
205 224 226 209 200 192 204 216 205 169 158 223 240 175 164 163 160 160 157 157 176 187 328 26 138 223 281 265 270 263 229 254 263 251 244 237 230 227 226 227 225 223 223 225 225 225 223 223 222 222 223 224 223 224 225 226 227 227 228 229 230 230 231 231 230 231 231 232 233 234 235 235 237 240 246 250 246 241 243 247 252 254 256 259 258 254
190 212 223 209 201 202 204 209 186 161 159 229 208 137 155 162 161 164 157 148 109 134 250 291 154 192 262 270 306 6 199 256 250 237 238 233 228 226 225 225 225 224 224 224 223 222 221 222 222 224 225 226 226 227 229 230 230 231 230 231 232 232 232 231 231 231 232 234 235 234 234 233 232 233 237 240 238 239 246 251 256 260 262 261 258 255
199 215 224 197 203 214 207 207 174 166 180 186 131 90 80 82 95 125 136 123 89 151 223 232 185 191 263 277 311 29 212 245 240 236 234 228 224 221 221 220 217 217 216 216 216 216 218 219 219 221 223 225 228 229 231 233 233 232 231 231 232 232 232 232 231 231 232 234 234 232 232 230 229 230 230 232 235 240 246 254 259 260 255 251 251 254
269 222 238 208 226 222 184 175 181 183 162 130 108 79 70 49 46 58 64 94 114 236 243 235 202 172 259 273 239 202 222 218 217 243 239 224 221 218 216 215 214 213 211 211 212 214 217 219 220 221 223 225 228 230 232 233 233 233 232 231 231 232 231 231 230 230 231 231 232 232 230 228 228 230 231 233 237 242 249 257 257 245 237 237 242 245
325 178 227 252 258 239 143 108 30 189 154 124 107 110 99 25 21 35 359 56 168 240 259 255 222 158 218 259 239 236 259 231 204 223 225 215 217 216 213 213 215 216 216 216 218 220 222 224 226 227 228 229 229 230 231 232 233 232 231 229 229 229 229 229 228 228 228 228 228 229 229 229 230 231 234 237 240 246 252 254 240 220 221 224 221 216
251 244 276 307 270 223 169 119 69 165 168 131 127 139 129 61 54 165 251 233 212 239 268 256 190 192 231 251 255 259 265 252 232 233 233 223 217 215 212 211 213 217 222 224 225 228 229 230 231 232 233 234 233 232 230 231 231 231 230 228 227 227 226 226 225 224 224 224 224 225 225 226 228 230 234 237 242 246 246 235 217 208 206 200 190 176
221 282 288 283 268 224 192 177 159 181 192 158 149 155 153 136 150 199 228 275 237 243 284 274 210 251 267 267 252 249 256 261 263 264 263 248 231 220 210 207 211 217 223 230 232 233 232 230 231 232 233 234 234 233 230 228 227 226 226 225 224 223 223 222 221 220 220 220 220 222 223 224 226 229 232 236 240 236 222 207 196 190 181 174 170 165
190 228 222 186 212 232 205 218 184 151 162 190 155 140 153 158 163 194 206 188 205 236 293 291 215 190 203 249 247 253 276 280 271 270 270 256 238 220 205 201 208 216 223 230 232 232 230 228 228 229 230 230 230 228 224 221 220 220 221 221 220 219 219 219 217 216 217 218 218 220 222 224 226 228 229 230 224 206 190 181 174 171 168 165 165 167
189 223 271 242 286 328 211 270 209 133 155 230 120 124 167 178 147 143 181 176 165 153 272 237 229 207 207 267 280 283 299 296 269 261 247 225 214 201 196 200 207 215 221 225 227 226 226 225 225 226 225 223 220 217 215 213 212 214 215 217 217 217 217 217 217 216 217 217 218 219 220 221 221 219 214 204 191 178 169 166 166 165 163 163 166 170
182 205 326 334 324 27 289 281 296 167 181 167 121 174 213 155 116 117 163 107 99 148 240 210 241 292 305 289 311 339 314 298 302 272 211 193 189 188 193 201 207 213 218 221 222 222 223 224 223 223 220 217 214 210 207 205 205 207 209 210 210 211 212 214 215 214 214 215 215 214 212 209 201 192 185 177 171 166 164 165 164 162 164 168 172 174
162 154 331 17 149 303 334 316 326 4 125 127 157 197 189 107 93 110 140 19 56 191 266 243 211 271 280 252 318 338 288 271 270 260 218 192 188 191 196 201 206 211 214 217 219 220 224 225 224 222 217 212 209 205 201 199 197 197 199 201 200 200 201 203 205 205 206 205 201 196 190 182 177 172 169 166 164 164 165 165 164 167 173 174 175 176
151 143 303 2 188 291 346 17 248 3 54 131 169 160 126 138 175 124 146 164 158 210 276 299 238 242 198 215 283 270 240 244 239 233 229 210 201 200 200 202 204 208 210 214 218 220 224 224 223 220 215 208 200 196 193 190 188 186 186 188 188 189 189 190 192 192 190 187 180 176 172 168 167 166 164 163 163 164 166 169 172 174 178 177 177 178
152 143 262 303 306 309 358 45 189 231 359 36 89 125 98 137 172 175 154 161 176 203 242 291 289 254 227 215 217 224 227 223 212 213 220 215 209 204 204 204 206 208 211 215 219 221 223 222 220 215 210 203 193 187 185 182 181 179 178 179 180 180 179 179 179 177 174 171 168 168 166 165 164 164 164 165 167 170 171 174 177 177 179 181 181 182
148 146 195 302 343 344 200 234 195 194 186 77 111 177 193 63 120 154 135 127 138 165 191 192 244 261 249 207 202 222 228 211 204 210 218 217 211 209 209 210 211 211 213 217 219 220 221 219 216 209 204 198 189 183 179 177 175 174 173 174 174 174 172 171 169 167 166 165 165 166 167 166 167 166 168 170 172 175 176 177 179 180 182 185 185 187
163 163 157 161 301 187 231 267 223 211 215 164 184 192 182 138 113 152 232 242 120 150 172 161 214 267 257 201 208 227 229 214 217 217 223 222 215 212 213 214 216 216 215 217 218 219 219 216 211 206 200 196 189 183 179 176 174 172 170 170 169 169 168 167 166 165 166 165 166 169 170 170 170 171 173 174 175 176 179 180 181 182 186 188 190 194
111 113 117 147 209 210 250 272 201 216 276 249 221 196 170 154 131 159 209 223 153 155 142 128 167 273 261 213 215 240 256 263 242 223 224 228 221 217 215 215 217 217 217 218 217 217 216 213 210 205 200 196 191 186 182 178 175 172 171 169 169 169 169 168 169 169 170 170 171 172 173 174 174 174 176 177 177 179 181 184 184 185 188 190 194 199
123 107 107 88 311 313 309 320 347 186 260 245 242 187 153 185 148 155 186 177 163 177 150 128 215 269 275 259 243 258 270 274 258 228 222 226 224 218 216 214 214 214 215 215 214 215 213 211 209 205 202 198 194 189 184 180 177 174 174 173 172 174 174 174 174 173 174 175 175 175 176 177 177 177 178 179 181 183 185 186 187 187 188 192 197 203
158 144 130 129 106 14 323 298 277 230 185 200 244 221 137 119 104 115 140 109 159 202 163 158 220 252 274 314 301 285 290 280 260 232 221 222 220 215 213 212 212 211 212 212 211 211 211 210 209 206 204 201 195 190 186 183 181 179 178 179 179 179 179 178 178 178 178 178 178 178 178 180 180 180 182 183 184 187 188 188 190 190 191 194 199 208
155 164 149 146 171 189 198 207 207 196 177 201 242 189 167 139 138 167 148 115 207 231 160 168 216 250 277 313 315 304 305 282 263 227 215 219 219 215 211 209 210 210 211 212 210 210 210 210 209 208 207 204 197 192 189 187 186 185 184 184 184 184 184 183 183 182 181 182 182 182 182 183 184 184 185 187 188 190 191 192 193 193 195 197 201 213
127 179 178 182 195 196 188 177 152 132 142 210 215 187 191 192 177 161 124 160 199 177 179 215 207 221 257 277 285 282 272 263 264 223 208 212 214 214 210 208 209 210 211 213 212 211 211 210 210 210 209 205 199 196 194 193 192 191 191 189 187 188 189 188 186 185 185 185 187 187 186 186 187 187 189 191 192 193 194 195 196 196 198 202 208 221
103 207 194 196 207 199 173 173 167 157 173 199 203 197 201 199 178 166 193 211 177 145 235 243 199 202 236 235 237 256 250 241 254 234 215 211 209 209 207 205 207 209 211 213 214 214 213 212 212 212 211 206 202 199 198 198 198 197 196 196 193 191 191 191 189 188 188 189 189 190 190 189 190 190 192 194 195 196 197 197 198 199 201 207 215 225
140 198 194 188 198 179 164 183 180 177 187 195 197 201 200 187 177 190 213 213 161 171 234 231 189 203 232 224 221 231 221 218 232 230 219 212 208 205 204 204 206 209 212 214 216 217 216 215 215 214 212 207 203 202 202 201 201 200 199 199 197 194 193 193 193 192 192 192 192 193 194 193 193 194 195 196 197 197 198 198 198 201 205 209 215 226
172 188 180 160 153 61 15 208 191 187 192 195 202 204 194 186 189 198 214 214 188 206 237 234 211 229 232 220 226 240 241 233 234 233 221 213 208 205 203 206 209 212 216 219 220 219 219 218 218 216 213 209 205 205 205 205 204 203 201 200 199 197 195 195 196 196 195 195 195 196 197 197 197 197 197 198 198 198 198 199 201 204 208 212 218 232
156 181 152 119 130 40 356 346 194 194 191 197 210 205 189 194 202 208 217 216 202 227 251 260 267 264 242 215 229 250 257 219 201 221 224 220 213 206 204 209 214 218 222 224 223 222 221 220 219 218 215 212 209 208 209 209 207 205 203 202 201 200 198 197 198 198 198 198 198 199 199 200 199 199 199 198 199 199 200 202 205 207 210 215 225 243
104 127 84 97 141 225 345 30 153 141 108 232 238 214 194 198 206 212 218 205 191 219 240 244 252 257 232 193 222 236 221 188 208 227 227 223 216 210 209 214 219 224 227 227 225 224 223 222 221 221 218 215 212 212 212 212 210 208 206 205 204 202 200 199 199 200 200 200 201 201 201 202 201 200 200 200 200 201 203 205 207 209 212 217 229 252
130 128 117 131 163 222 319 331 141 110 97 257 246 209 196 202 205 208 225 222 208 207 214 225 235 231 187 187 213 215 187 202 229 235 233 227 219 216 219 222 227 231 232 232 231 228 227 227 226 225 222 219 217 216 216 215 214 212 209 207 206 204 202 201 200 201 202 202 203 204 203 203 203 201 201 202 202 204 206 207 209 209 213 220 234 256
145 138 152 160 147 201 267 252 115 133 197 242 248 189 188 194 196 202 218 223 217 211 216 236 243 176 171 203 211 197 196 214 230 239 242 241 230 226 230 233 237 240 238 236 236 234 233 233 231 229 226 223 222 220 219 218 216 214 211 208 207 205 204 203 202 203 204 204 204 204 204 204 203 202 203 204 205 207 208 208 209 210 215 224 240 265
150 137 150 129 106 162 209 115 136 199 220 257 331 212 191 191 192 204 221 225 219 218 229 250 253 210 199 221 227 221 220 226 235 244 252 255 249 245 244 244 245 245 243 241 241 240 238 235 234 232 230 228 225 222 220 218 216 214 212 210 209 207 206 206 205 205 205 205 205 205 205 205 203 203 205 206 208 208 208 208 210 213 221 232 250 275
143 133 130 103 111 139 115 138 188 225 281 295 300 298 199 172 170 200 239 252 235 217 223 238 243 234 222 234 240 240 240 240 242 247 249 251 252 251 249 250 250 249 247 247 248 248 245 241 239 237 235 232 228 224 222 220 216 214 212 211 210 209 208 207 207 206 205 206 207 206 206 205 205 206 207 209 209 208 208 210 212 218 227 242 264 283
144 136 127 129 161 146 127 195 255 325 310 275 254 214 172 158 146 163 229 255 225 206 212 224 238 240 231 237 244 244 247 255 256 253 247 242 243 245 246 246 248 249 250 251 253 255 252 249 246 242 240 237 233 229 225 220 217 215 212 211 211 210 209 208 208 208 207 207 207 207 206 206 207 209 209 209 208 208 209 212 216 223 235 252 270 286
146 151 159 173 212 100 114 165 305 284 266 253 220 186 186 182 169 153 193 254 228 206 211 216 227 231 226 239 243 228 223 251 268 259 253 244 237 240 242 243 244 248 250 251 253 253 252 251 249 247 245 241 238 233 227 221 218 215 213 213 212 210 209 209 209 209 209 208 207 207 207 207 208 210 210 209 208 209 211 214 220 229 242 258 273 287
84 88 146 159 166 125 147 195 210 230 253 224 160 190 192 181 162 127 174 263 233 200 212 215 219 223 222 231 225 187 171 220 239 253 257 253 244 241 242 243 244 246 248 249 251 252 252 251 249 248 246 243 241 237 231 224 219 216 215 214 213 211 211 210 210 210 209 208 208 208 208 209 209 209 208 209 209 210 213 218 224 234 245 260 275 286
88 84 147 168 178 170 179 204 216 241 257 207 193 210 180 165 145 116 212 259 204 192 211 210 207 218 223 222 208 166 175 219 234 253 259 261 257 248 244 244 246 248 250 252 254 255 256 255 251 247 246 246 244 240 233 226 221 218 217 216 214 213 213 212 211 210 209 209 208 208 208 209 208 208 208 209 211 212 216 222 229 238 250 262 275 285
102 114 170 177 176 173 182 206 250 267 237 217 223 177 153 144 134 151 216 228 185 190 206 205 210 222 224 212 193 191 220 230 237 256 263 259 257 250 245 247 249 252 256 256 257 260 260 259 257 254 252 250 246 241 235 228 223 220 219 217 216 215 214 213 212 210 209 208 208 208 208 208 207 208 208 209 211 215 220 226 232 242 253 264 276 284
149 140 169 162 156 162 176 192 256 273 232 184 151 151 152 145 165 213 201 168 182 191 188 197 216 227 225 213 210 221 234 236 237 246 249 241 238 234 233 242 246 251 257 257 258 261 260 259 258 253 248 245 242 239 236 230 225 223 220 219 218 217 215 213 212 211 209 208 208 208 208 208 208 208 209 211 213 217 223 229 235 245 254 266 277 283
167 157 178 189 166 143 138 168 213 269 211 147 128 131 172 181 211 195 171 147 179 188 185 195 210 216 220 223 226 230 235 236 231 228 222 219 225 224 224 229 233 239 247 250 253 257 259 261 259 254 248 244 239 237 234 230 227 224 222 220 218 216 215 213 212 210 209 208 208 208 208 208 209 209 210 212 215 219 225 231 238 248 260 269 276 280
187 173 180 205 181 146 165 193 209 242 169 153 139 159 198 197 194 173 176 177 178 180 186 195 201 206 215 224 229 227 229 231 227 220 216 220 229 233 232 230 228 229 233 237 243 246 250 254 255 253 250 245 240 236 232 229 227 226 224 222 219 216 214 212 211 209 208 208 208 208 209 209 210 211 212 214 217 221 226 233 243 254 262 268 272 277
211 197 171 181 186 171 193 209 212 164 159 165 152 171 185 192 201 182 185 191 182 175 176 179 188 197 205 215 222 219 220 226 224 217 217 223 228 228 227 223 220 222 227 233 239 243 245 249 250 250 249 245 240 236 232 229 229 227 226 224 221 217 215 213 211 209 208 208 209 209 210 211 211 212 214 215 218 223 229 239 249 255 259 265 271 276
223 188 145 139 199 239 251 212 156 117 150 172 153 150 178 191 202 193 192 191 174 164 159 157 163 171 177 190 203 200 198 204 205 204 208 210 211 213 216 219 223 231 241 249 255 258 255 251 249 248 247 245 241 237 233 230 229 229 228 226 221 217 215 213 211 209 209 210 210 210 211 212 212 213 215 217 220 226 233 242 248 253 259 265 270 274
256 169 144 138 179 198 249 255 150 146 164 164 148 149 167 182 191 190 186 180 168 159 156 156 156 157 158 158 162 169 173 174 177 187 195 197 204 210 217 227 236 243 251 256 259 263 262 259 255 252 249 247 243 238 234 230 229 228 227 226 222 218 214 212 211 211 211 211 211 212 213 213 214 215 216 219 223 228 234 241 246 252 258 264 268 274
181 165 171 189 176 174 223 275 128 129 139 142 142 149 157 165 173 173 168 168 166 160 160 160 157 159 159 156 158 165 167 171 179 189 196 202 213 222 230 241 246 249 253 254 255 258 261 261 260 257 253 250 246 242 237 233 230 229 226 224 221 218 214 212 212 213 213 213 213 214 214 215 216 217 219 222 225 230 235 240 246 251 257 263 268 274
134 158 176 161 151 160 289 192 125 100 102 153 159 159 160 160 163 163 161 161 160 158 158 157 154 157 159 159 164 168 172 182 190 198 208 217 226 235 243 251 254 256 258 259 259 259 259 259 259 257 254 252 248 244 241 236 233 231 227 222 219 217 215 214 214 213 214 214 214 215 216 217 218 219 222 225 228 231 235 240 246 252 257 263 269 274
133 162 175 120 154 208 225 184 169 136 103 190 174 163 162 162 160 160 157 154 153 154 156 156 153 154 158 164 171 177 186 200 211 220 228 237 246 250 255 258 257 258 259 258 258 257 256 256 257 254 252 251 247 245 243 239 235 232 227 221 217 215 216 216 215 215 214 215 216 217 218 219 220 221 224 227 230 233 237 242 247 252 258 263 267 271
167 183 179 157 174 229 207 181 174 156 116 158 164 160 159 160 160 157 150 147 148 146 145 152 154 153 157 166 176 188 203 222 239 248 255 259 257 253 253 252 251 252 255 254 257 260 260 258 257 254 252 250 246 244 242 240 236 232 227 221 216 215 217 218 218 218 217 217 217 219 220 221 222 224 226 229 231 235 239 243 248 253 258 262 266 271